Location: Casteau
(50.5142°N, 4.0161°E)
Time: 19:30:52
(UTC+00:00)

Tiros 1 - Pass Details

Date: 08 August 2021
Orbit: 630 x 663 km, 48.4° (Epoch: 28 September)

Event Time Altitude Azimuth Distance (km) Brightness Sun altitude
Rises 19:21:34 0° 278° (W) 2,988 12.2 -1.6°
Reaches altitude 10° 19:23:59 10° 273° (W) 2,070 11.1 -1.9°
Maximum altitude 19:28:35 49° 199° (SSW) 841 7.7 -2.6°
Drops below altitude 10° 19:33:08 10° 125° (SE) 2,045 9.1 -3.2°
Enters shadow 19:34:28 - 122° (ESE) 2,548 9.5 -3.4°
Sets 19:35:30 0° 120° (ESE) 2,948 - -3.5°
